This is the latest recevied weather packets stored in our database for station/object W1HVD. If no packets are shown the sender has not sent any weather packets the latest 10 day(s).
| Time | Temp. | Humidity | Pressure | Rain* | Wind** | Luminosity | Snow |
|---|---|---|---|---|---|---|---|
| 1778209131 | 10.56° C | 53% | 1008 hPa | 0 mm | - | 0 W/m² | - |
| 1778208827 | 10° C | 53% | 1008.1 hPa | 0 mm | - | 0 W/m² | - |
| 1778208524 | 10° C | 51% | 1008 hPa | 0 mm | - | 0 W/m² | - |
| 1778208221 | 10° C | 56% | 1008 hPa | 0 mm | - | 0 W/m² | - |
| 1778207917 | 10° C | 56% | 1007.8 hPa | 0 mm | - | 0 W/m² | - |
| 1778207614 | 10° C | 56% | 1008 hPa | 0 mm | - | 0 W/m² | - |
| 1778207311 | 10° C | 52% | 1007.8 hPa | 0 mm | - | 0 W/m² | - |
| 1778207007 | 10° C | 52% | 1007.8 hPa | 0 mm | - | 0 W/m² | - |
| 1778206704 | 10° C | 54% | 1008 hPa | 0 mm | - | 0 W/m² | - |
| 1778206400 | 10° C | 54% | 1008 hPa | 0 mm | - | 0 W/m² | - |
| 1778206096 | 9.44° C | 59% | 1008 hPa | 0 mm | - | 0 W/m² | - |
| 1778205794 | 10° C | 63% | 1007.9 hPa | 0 mm | - | 0 W/m² | - |
| 1778205491 | 10° C | 59% | 1008 hPa | 0 mm | - | 0 W/m² | - |
| 1778205188 | 10° C | 63% | 1007.9 hPa | 0 mm | - | 0 W/m² | - |
| 1778204885 | 10.56° C | 51% | 1007.9 hPa | 0 mm | - | 0 W/m² | - |
| 1778204582 | 10° C | 52% | 1008 hPa | 0 mm | - | 0 W/m² | - |
| 1778204277 | 10° C | 57% | 1008 hPa | 0 mm | - | 0 W/m² | - |
| 1778203974 | 10.56° C | 52% | 1007.8 hPa | 0 mm | - | 0 W/m² | - |
| 1778203672 | 10.56° C | 59% | 1007.9 hPa | 0 mm | - | 0 W/m² | - |
| 1778203368 | 10.56° C | 59% | 1007.8 hPa | 0 mm | - | 0 W/m² | - |
| 1778203066 | 10.56° C | 55% | 1007.7 hPa | 0 mm | - | 0 W/m² | - |
| 1778202763 | 11.11° C | 52% | 1007.4 hPa | 0 mm | - | 0 W/m² | - |
| 1778202460 | 11.11° C | 50% | 1007.6 hPa | 0 mm | - | 0 W/m² | - |
| 1778202158 | 11.11° C | 48% | 1007.5 hPa | 0 mm | - | 0 W/m² | - |
| 1778201855 | 11.67° C | 48% | 1007.6 hPa | 0 mm | - | 0 W/m² | - |
* Rain latest hour (hover to see other rain measurements)
** Current wind speed in m/s (hover to see current wind gust speed)